| time (UTC) | temp F | wind direction | speed MPH | gust MPH | rain 1hr in | rain 24hr in | rain mn in | humidity % | barometer mb |
| 20260831144604 | 84 | 115 | 1.0 | 9.0 | 0.00 | 0.00 | 0.00 | 55 | 1019.6 |
| 20260831143055 | 84 | 92 | 3.0 | 9.0 | 0.00 | 0.00 | 0.00 | 56 | 1019.7 |
| 20260831141606 | 84 | 96 | 3.0 | 10.0 | 0.00 | 0.00 | 0.00 | 57 | 1019.6 |
| 20260831140054 | 84 | 11 | 3.0 | 11.0 | 0.00 | 0.00 | 0.00 | 56 | 1019.7 |
| 20260831134604 | 84 | 147 | 5.0 | 11.0 | 0.00 | 0.00 | 0.00 | 54 | 1019.7 |
| 20260831133101 | 84 | 140 | 5.0 | 14.0 | 0.00 | 0.00 | 0.00 | 54 | 1019.7 |
| 20260831131603 | 84 | 125 | 6.0 | 11.0 | 0.00 | 0.00 | 0.00 | 52 | 1019.8 |
| 20260831130109 | 85 | 92 | 4.0 | 11.0 | 0.00 | 0.00 | 0.00 | 51 | 1019.9 |
| 20260831124600 | 85 | 132 | 5.0 | 11.0 | 0.00 | 0.00 | 0.00 | 47 | 1019.9 |
| 20260831123058 | 85 | 143 | 3.0 | 11.0 | 0.00 | 0.00 | 0.00 | 48 | 1019.9 |
| 20260831121559 | 85 | 132 | 5.0 | 12.0 | 0.00 | 0.00 | 0.00 | 46 | 1019.9 |
| 20260831120057 | 86 | 128 | 4.0 | 11.0 | 0.00 | 0.00 | 0.00 | 46 | 1020.0 |
| 20260831114606 | 86 | 128 | 5.0 | 11.0 | 0.00 | 0.00 | 0.00 | 45 | 1019.9 |
| 20260831113057 | 86 | 0 | 2.0 | 9.0 | 0.00 | 0.00 | 0.00 | 42 | 1019.9 |
| 20260831111605 | 86 | 108 | 2.0 | 8.0 | 0.00 | 0.00 | 0.00 | 42 | 1020.0 |
| 20260831110058 | 86 | 163 | 4.0 | 11.0 | 0.00 | 0.00 | 0.00 | 41 | 1020.1 |
| 20260831104556 | 86 | 220 | 1.0 | 7.0 | 0.00 | 0.00 | 0.00 | 42 | 1020.0 |
| 20260831103053 | 85 | 140 | 1.0 | 7.0 | 0.00 | 0.00 | 0.00 | 40 | 1020.1 |
| 20260831101552 | 84 | 109 | 2.0 | 8.0 | 0.00 | 0.00 | 0.00 | 41 | 1020.2 |
| 20260831100116 | 85 | 138 | 2.0 | 7.0 | 0.00 | 0.00 | 0.00 | 42 | 1020.2 |
| 20260831094603 | 85 | 312 | 2.0 | 8.0 | 0.00 | 0.00 | 0.00 | 41 | 1020.3 |
| 20260831093121 | 85 | 17 | 1.0 | 5.0 | 0.00 | 0.00 | 0.00 | 42 | 1020.4 |
| 20260831091605 | 84 | 0 | 1.0 | 4.0 | 0.00 | 0.00 | 0.00 | 44 | 1020.4 |
| 20260831090131 | 82 | 0 | 0.0 | 3.0 | 0.00 | 0.00 | 0.00 | 46 | 1020.5 |
| 20260831084604 | 81 | 103 | 1.0 | 4.0 | 0.00 | 0.00 | 0.00 | 46 | 1020.6 |
| 20260831083112 | 80 | 0 | 1.0 | 4.0 | 0.00 | 0.00 | 0.00 | 47 | 1020.4 |
| 20260831081603 | 79 | 123 | 0.0 | 3.0 | 0.00 | 0.00 | 0.00 | 50 | 1020.3 |
| 20260831080129 | 78 | 0 | 1.0 | 3.0 | 0.00 | 0.00 | 0.00 | 52 | 1020.2 |
| 20260831074555 | 77 | 5 | 0.0 | 3.0 | 0.00 | 0.00 | 0.00 | 53 | 1020.2 |
| 20260831073102 | 76 | 0 | 0.0 | 2.0 | 0.00 | 0.00 | 0.00 | 55 | 1020.0 |
| 20260831071604 | 75 | 0 | 0.0 | 2.0 | 0.00 | 0.00 | 0.00 | 58 | 1020.0 |
| 20260831070104 | 73 | 0 | 0.0 | 2.0 | 0.00 | 0.00 | 0.00 | 61 | 1020.0 |
| 20260831064554 | 71 | 0 | 0.0 | 0.0 | 0.00 | 0.00 | 0.00 | 65 | 1019.9 |
| 20260831063108 | 70 | 0 | 0.0 | 2.0 | 0.00 | 0.00 | 0.00 | 66 | 1019.9 |
| 20260831061603 | 68 | 0 | 0.0 | 1.0 | 0.00 | 0.00 | 0.00 | 67 | 1020.0 |
| 20260831060105 | 67 | 323 | 0.0 | 2.0 | 0.00 | 0.00 | 0.00 | 70 | 1019.9 |
| 20260831054604 | 67 | 0 | 0.0 | 0.0 | 0.00 | 0.00 | 0.00 | 69 | 1019.9 |
| 20260831053132 | 66 | 0 | 0.0 | 1.0 | 0.00 | 0.00 | 0.00 | 69 | 1019.9 |
| 20260831051600 | 66 | 0 | 0.0 | 2.0 | 0.00 | 0.00 | 0.00 | 68 | 1019.8 |
| 20260831050058 | 66 | 0 | 0.0 | 1.0 | 0.00 | 0.00 | 0.00 | 67 | 1019.6 |
| 20260831044643 | 66 | 0 | 0.0 | 2.0 | 0.00 | 0.00 | 0.00 | 67 | 1019.7 |
| 20260831043105 | 65 | 0 | 0.0 | 1.0 | 0.00 | 0.00 | 0.00 | 68 | 1019.6 |
| 20260831041603 | 66 | 0 | 0.0 | 2.0 | 0.00 | 0.00 | 0.00 | 68 | 1019.6 |
| 20260831040056 | 66 | 0 | 0.0 | 2.0 | 0.00 | 0.00 | 0.00 | 68 | 1019.7 |
| 20260831034609 | 66 | 0 | 0.0 | 1.0 | 0.00 | 0.00 | 0.00 | 68 | 1019.8 |
| 20260831033111 | 65 | 0 | 0.0 | 1.0 | 0.00 | 0.00 | 0.00 | 68 | 1019.7 |
| 20260831031600 | 65 | 0 | 0.0 | 0.0 | 0.00 | 0.00 | 0.00 | 69 | 1019.9 |
| 20260831030056 | 66 | 0 | 0.0 | 0.0 | 0.00 | 0.00 | 0.00 | 68 | 1019.9 |
| 20260831024553 | 66 | 0 | 0.0 | 0.0 | 0.00 | 0.00 | 0.00 | 69 | 1019.9 |
| 20260831023107 | 66 | 360 | 0.0 | 1.0 | 0.00 | 0.00 | 0.00 | 68 | 1020.0 |
| 20260831021601 | 67 | 0 | 0.0 | 1.0 | 0.00 | 0.00 | 0.00 | 68 | 1020.1 |
| 20260831014553 | 67 | 360 | 2.0 | 3.0 | 0.00 | 0.00 | 0.00 | 69 | 1020.2 |
| 20260831013102 | 67 | 0 | 0.0 | 2.0 | 0.00 | 0.00 | 0.00 | 68 | 1020.2 |
| 20260831011559 | 67 | 360 | 2.0 | 4.0 | 0.00 | 0.00 | 0.00 | 68 | 1020.0 |
| 20260831010107 | 67 | 360 | 2.0 | 4.0 | 0.00 | 0.00 | 0.00 | 69 | 1020.1 |
| 20260831004612 | 67 | 360 | 2.0 | 3.0 | 0.00 | 0.00 | 0.00 | 69 | 1020.2 |
| 20260831003109 | 67 | 360 | 1.0 | 3.0 | 0.00 | 0.00 | 0.00 | 69 | 1020.3 |
| 20260831001600 | 67 | 0 | 0.0 | 0.0 | 0.00 | 0.00 | 0.00 | 69 | 1020.2 |
| 20260831000110 | 67 | 0 | 0.0 | 0.0 | 0.00 | 0.00 | 0.00 | 69 | 1020.4 |
| 20260830234624 | 67 | 0 | 0.0 | 0.0 | 0.00 | 0.00 | 0.00 | 69 | 1020.3 |
| 20260830233104 | 67 | 0 | 0.0 | 5.0 | 0.00 | 0.00 | 0.00 | 70 | 1020.3 |
| 20260830231607 | 67 | 360 | 1.0 | 3.0 | 0.00 | 0.00 | 0.00 | 70 | 1020.3 |
| 20260830230059 | 68 | 0 | 0.0 | 4.0 | 0.00 | 0.00 | 0.00 | 69 | 1020.4 |
| 20260830224559 | 68 | 360 | 2.0 | 4.0 | 0.00 | 0.00 | 0.00 | 69 | 1020.2 |
| 20260830223057 | 69 | 360 | 0.0 | 3.0 | 0.00 | 0.00 | 0.00 | 68 | 1020.3 |
| 20260830221553 | 69 | 0 | 0.0 | 3.0 | 0.00 | 0.00 | 0.00 | 67 | 1020.3 |
| 20260830220106 | 69 | 360 | 1.0 | 4.0 | 0.00 | 0.00 | 0.00 | 66 | 1020.2 |
| 20260830214602 | 70 | 360 | 2.0 | 5.0 | 0.00 | 0.00 | 0.00 | 66 | 1020.2 |
| 20260830213107 | 70 | 360 | 2.0 | 5.0 | 0.00 | 0.00 | 0.00 | 65 | 1020.2 |
| 20260830211606 | 70 | 360 | 1.0 | 4.0 | 0.00 | 0.00 | 0.00 | 65 | 1020.2 |
| 20260830210103 | 70 | 350 | 2.0 | 4.0 | 0.00 | 0.00 | 0.00 | 64 | 1020.1 |
| 20260830204558 | 71 | 360 | 0.0 | 4.0 | 0.00 | 0.00 | 0.00 | 62 | 1020.1 |
| 20260830203101 | 71 | 0 | 0.0 | 2.0 | 0.00 | 0.00 | 0.00 | 61 | 1020.1 |
| 20260830201606 | 71 | 0 | 1.0 | 5.0 | 0.00 | 0.00 | 0.00 | 61 | 1020.1 |
| 20260830200106 | 72 | 21 | 1.0 | 3.0 | 0.00 | 0.00 | 0.00 | 60 | 1020.2 |
| 20260830194602 | 72 | 297 | 2.0 | 4.0 | 0.00 | 0.00 | 0.00 | 59 | 1020.2 |
| 20260830193056 | 72 | 348 | 0.0 | 3.0 | 0.00 | 0.00 | 0.00 | 58 | 1020.2 |
| 20260830191555 | 73 | 207 | 0.0 | 5.0 | 0.00 | 0.00 | 0.00 | 58 | 1020.2 |
| 20260830184601 | 74 | 325 | 3.0 | 6.0 | 0.00 | 0.00 | 0.00 | 56 | 1020.1 |
| 20260830183103 | 74 | 318 | 3.0 | 6.0 | 0.00 | 0.00 | 0.00 | 55 | 1019.9 |
| 20260830181600 | 75 | 318 | 3.0 | 5.0 | 0.00 | 0.00 | 0.00 | 54 | 1019.7 |
| 20260830180108 | 75 | 327 | 3.0 | 5.0 | 0.00 | 0.00 | 0.00 | 53 | 1019.5 |
| 20260830174617 | 76 | 325 | 2.0 | 4.0 | 0.00 | 0.00 | 0.00 | 52 | 1019.4 |
| 20260830173108 | 78 | 315 | 2.0 | 6.0 | 0.00 | 0.00 | 0.00 | 49 | 1019.2 |
| 20260830171609 | 79 | 324 | 3.0 | 6.0 | 0.00 | 0.00 | 0.00 | 47 | 1019.1 |
| 20260830170110 | 79 | 355 | 2.0 | 6.0 | 0.00 | 0.00 | 0.00 | 46 | 1019.1 |
| 20260830164604 | 80 | 297 | 2.0 | 5.0 | 0.00 | 0.00 | 0.00 | 45 | 1019.2 |
| 20260830163107 | 81 | 28 | 2.0 | 5.0 | 0.00 | 0.00 | 0.00 | 40 | 1019.0 |
| 20260830161622 | 85 | 319 | 1.0 | 4.0 | 0.00 | 0.00 | 0.00 | 33 | 1018.9 |
| 20260830160104 | 87 | 0 | 0.0 | 5.0 | 0.00 | 0.00 | 0.00 | 29 | 1018.9 |
| 20260830154601 | 89 | 152 | 2.0 | 5.0 | 0.00 | 0.00 | 0.00 | 27 | 1018.9 |
| 20260830153055 | 90 | 0 | 0.0 | 7.0 | 0.00 | 0.00 | 0.00 | 26 | 1018.9 |
| 20260830151559 | 90 | 111 | 0.0 | 2.0 | 0.00 | 0.00 | 0.00 | 26 | 1018.8 |
| 20260830150121 | 89 | 0 | 0.0 | 7.0 | 0.00 | 0.00 | 0.00 | 26 | 1019.0 |